Location: Flitcham
(52.8000°N, 0.5667°E)
Time: 07:39:02
(UTC+00:00)

Cosmos 1536 - Pass Details

Date: 15 May 2026
Orbit: 482 x 500 km, 82.5° (Epoch: 6 June)

Event Time Altitude Azimuth Distance (km) Brightness Sun altitude
Rises 23:04:52 0° 341° (NNW) 2,571 8.0 -17.4°
Reaches altitude 10° 23:07:08 10° 331° (NNW) 1,688 6.4 -17.4°
Maximum altitude 23:10:23 30° 269° (W) 899 4.0 -17.5°
Enters shadow 23:11:46 23° 230° (SW) 1,080 4.0 -17.6°
